TimeEST,TemperatureF,Dew PointF,Humidity,Sea Level PressureIn,VisibilityMPH,Wind Direction,Wind SpeedMPH,Gust SpeedMPH,PrecipitationIn,Events,Conditions,WindDirDegrees,DateUTC
12:40 AM,60.8,55.4,82,30.14,10.0,ENE,6.9,-,N/A,,Overcast,70,2012-12-06 05:40:00
12:51 AM,60.1,54.0,80,30.13,10.0,ENE,5.8,-,N/A,,Overcast,70,2012-12-06 05:51:00
1:16 AM,60.8,53.6,77,30.14,10.0,ENE,5.8,-,N/A,,Overcast,70,2012-12-06 06:16:00
1:51 AM,60.1,51.1,72,30.14,10.0,ENE,6.9,-,N/A,,Overcast,70,2012-12-06 06:51:00
2:51 AM,59.0,46.0,62,30.14,10.0,ENE,8.1,-,N/A,,Overcast,60,2012-12-06 07:51:00
3:51 AM,57.9,41.0,53,30.14,10.0,ENE,9.2,-,N/A,,Overcast,60,2012-12-06 08:51:00
4:25 AM,57.2,39.2,51,30.14,10.0,ENE,9.2,-,N/A,,Overcast,70,2012-12-06 09:25:00
4:38 AM,57.2,37.4,48,30.15,10.0,ENE,8.1,-,N/A,,Overcast,70,2012-12-06 09:38:00
4:51 AM,57.9,37.0,46,30.14,10.0,ENE,8.1,-,N/A,,Overcast,70,2012-12-06 09:51:00
5:51 AM,57.0,39.0,51,30.15,10.0,ENE,8.1,-,N/A,,Overcast,70,2012-12-06 10:51:00
6:51 AM,57.0,41.0,55,30.17,10.0,ENE,8.1,-,N/A,,Overcast,70,2012-12-06 11:51:00
7:51 AM,55.9,43.0,62,30.18,10.0,ENE,10.4,-,N/A,,Overcast,70,2012-12-06 12:51:00
8:51 AM,55.0,37.0,51,30.19,10.0,ENE,11.5,-,N/A,,Overcast,60,2012-12-06 13:51:00
9:51 AM,55.9,36.0,47,30.21,10.0,ENE,11.5,17.3,N/A,,Overcast,70,2012-12-06 14:51:00
10:51 AM,55.0,39.0,55,30.22,10.0,NE,13.8,19.6,N/A,,Overcast,40,2012-12-06 15:51:00
11:51 AM,55.0,41.0,59,30.20,10.0,ENE,11.5,-,N/A,,Overcast,60,2012-12-06 16:51:00
12:44 PM,55.4,42.8,63,30.18,10.0,ENE,11.5,-,N/A,,Overcast,60,2012-12-06 17:44:00
12:51 PM,55.0,42.1,62,30.17,10.0,ENE,11.5,-,N/A,,Overcast,70,2012-12-06 17:51:00
1:51 PM,55.0,43.0,64,30.16,10.0,NE,10.4,-,N/A,,Overcast,50,2012-12-06 18:51:00
2:51 PM,55.9,43.0,62,30.15,10.0,East,10.4,-,N/A,,Overcast,80,2012-12-06 19:51:00
3:51 PM,55.0,44.1,67,30.15,10.0,NE,8.1,-,N/A,,Overcast,50,2012-12-06 20:51:00
4:51 PM,54.0,43.0,66,30.16,10.0,ENE,9.2,-,N/A,,Overcast,70,2012-12-06 21:51:00
5:51 PM,52.0,42.1,69,30.17,10.0,ENE,8.1,-,N/A,,Overcast,60,2012-12-06 22:51:00
6:51 PM,51.1,44.1,77,30.17,10.0,East,8.1,-,0.00,,Overcast,80,2012-12-06 23:51:00
7:51 PM,50.0,41.0,71,30.17,10.0,ENE,9.2,-,N/A,,Mostly Cloudy,70,2012-12-07 00:51:00
8:51 PM,50.0,39.9,68,30.16,10.0,East,11.5,-,N/A,,Mostly Cloudy,80,2012-12-07 01:51:00
9:34 PM,50.0,39.2,66,30.17,10.0,ENE,8.1,-,N/A,,Overcast,70,2012-12-07 02:34:00
9:49 PM,50.0,39.2,66,30.17,10.0,ENE,8.1,-,N/A,,Overcast,60,2012-12-07 02:49:00
9:51 PM,50.0,39.9,68,30.17,10.0,ENE,8.1,-,N/A,,Overcast,60,2012-12-07 02:51:00
10:30 PM,50.0,39.2,66,30.18,10.0,ENE,10.4,-,N/A,,Overcast,70,2012-12-07 03:30:00
10:51 PM,50.0,39.0,66,30.18,10.0,ENE,11.5,18.4,N/A,,Overcast,70,2012-12-07 03:51:00
11:10 PM,50.0,39.2,66,30.17,10.0,ENE,12.7,-,N/A,,Overcast,70,2012-12-07 04:10:00
11:51 PM,48.9,39.0,69,30.17,10.0,ENE,10.4,-,N/A,,Overcast,70,2012-12-07 04:51:00